Zurück zum Katalog

STARLINK-31764

AktivKommunikationVLEO
NORAD 59653·PAYLOAD·🇺🇸 United States

Gestartet May 3, 2024 von Cape Canaveral Space Force Station

Loading…

Nächste Überflüge (nächste 24 Stunden)

TLE

AktuellSource: CelesTrak SupGP

Epoche: Sep 14, 2026, 21:17 UTC

1 59653C 24082Y   26257.88729167 -.00037006  00000+0 -13405-2 0  2573
2 59653  43.0001 151.1386 0001306 265.6372 299.8253 15.27593383    19

Verfolge STARLINK-31764 in Echtzeit mit AllMySat

Download on the App Store